| time (UTC) | temp F | wind direction | speed MPH | gust MPH | rain 1hr in | rain 24hr in | rain mn in | humidity % | barometer mb |
| 20260506004939 | 79 | 157 | 0.0 | 0.0 | 0.00 | 0.00 | 0.00 | 85 | 997.9 |
| 20260506003939 | 79 | 180 | 0.0 | 0.0 | 0.00 | 0.00 | 0.00 | 84 | 997.9 |
| 20260506002938 | 80 | 180 | 0.0 | 0.0 | 0.00 | 0.00 | 0.00 | 83 | 997.9 |
| 20260506001037 | 80 | 162 | 0.0 | 2.0 | 0.00 | 0.00 | 0.00 | 81 | 997.6 |
| 20260506000136 | 80 | 180 | 0.0 | 3.0 | 0.00 | 0.00 | 0.00 | 81 | 997.6 |
| 20260505235138 | 80 | 180 | 2.0 | 5.0 | 0.00 | 0.00 | 0.00 | 81 | 997.3 |
| 20260505234138 | 80 | 180 | 0.0 | 0.0 | 0.00 | 0.00 | 0.00 | 80 | 997.3 |
| 20260505231139 | 81 | 189 | 0.0 | 2.0 | 0.00 | 0.00 | 0.00 | 78 | 997.3 |
| 20260505230237 | 81 | 135 | 0.0 | 0.0 | 0.00 | 0.00 | 0.00 | 78 | 997.3 |
| 20260505225236 | 81 | 180 | 0.0 | 2.0 | 0.00 | 0.00 | 0.00 | 76 | 997.3 |
| 20260505224238 | 81 | 139 | 0.0 | 0.0 | 0.00 | 0.00 | 0.00 | 74 | 997.3 |
| 20260505223237 | 82 | 157 | 1.0 | 2.0 | 0.00 | 0.00 | 0.00 | 71 | 997.3 |
| 20260505215337 | 82 | 180 | 0.0 | 0.0 | 0.00 | 0.00 | 0.00 | 71 | 997.3 |
| 20260505214338 | 84 | 181 | 2.0 | 7.0 | 0.00 | 0.00 | 0.00 | 70 | 997.3 |
| 20260505212440 | 84 | 174 | 1.0 | 3.0 | 0.00 | 0.00 | 0.00 | 71 | 997.3 |
| 20260505210536 | 83 | 175 | 3.0 | 6.0 | 0.00 | 0.00 | 0.00 | 71 | 997.9 |
| 20260505205538 | 83 | 143 | 1.0 | 4.0 | 0.00 | 0.00 | 0.00 | 73 | 997.9 |
| 20260505204538 | 83 | 180 | 0.0 | 4.0 | 0.00 | 0.00 | 0.00 | 74 | 998.3 |
| 20260505203537 | 80 | 162 | 2.0 | 5.0 | 0.00 | 0.00 | 0.00 | 80 | 999.0 |
| 20260505201538 | 81 | 170 | 3.0 | 7.0 | 0.00 | 0.00 | 0.00 | 79 | 999.0 |
| 20260505195637 | 79 | 159 | 0.0 | 3.0 | 0.00 | 0.00 | 0.00 | 82 | 999.4 |
| 20260505194640 | 79 | 171 | 1.0 | 6.0 | 0.00 | 0.00 | 0.00 | 81 | 999.4 |
| 20260505193639 | 78 | 179 | 3.0 | 5.0 | 0.00 | 0.00 | 0.00 | 84 | 999.7 |
| 20260505192636 | 78 | 196 | 2.0 | 8.0 | 0.00 | 0.00 | 0.00 | 84 | 999.7 |
| 20260505191639 | 79 | 169 | 3.0 | 8.0 | 0.00 | 0.00 | 0.00 | 83 | 999.7 |
| 20260505190736 | 79 | 176 | 3.0 | 6.0 | 0.00 | 0.00 | 0.00 | 83 | 999.7 |
| 20260505185739 | 78 | 167 | 3.0 | 9.0 | 0.00 | 0.00 | 0.00 | 86 | 1000.0 |
| 20260505183838 | 78 | 162 | 0.0 | 2.0 | 0.00 | 0.00 | 0.00 | 87 | 1000.4 |
| 20260505182837 | 78 | 180 | 0.0 | 4.0 | 0.00 | 0.00 | 0.00 | 88 | 1000.4 |
| 20260505180838 | 76 | 138 | 2.0 | 4.0 | 0.00 | 0.00 | 0.00 | 92 | 1000.7 |
| 20260505175839 | 75 | 161 | 1.0 | 6.0 | 0.00 | 0.00 | 0.00 | 92 | 1001.1 |
| 20260505174838 | 74 | 137 | 2.0 | 6.0 | 0.00 | 0.00 | 0.00 | 92 | 1001.1 |
| 20260505173837 | 74 | 204 | 1.0 | 3.0 | 0.00 | 0.00 | 0.00 | 94 | 1001.4 |
| 20260505172838 | 74 | 27 | 0.0 | 5.0 | 0.00 | 0.00 | 0.00 | 94 | 1001.4 |
| 20260505171936 | 74 | 142 | 0.0 | 3.0 | 0.00 | 0.00 | 0.00 | 94 | 1001.4 |
| 20260505170939 | 74 | 164 | 2.0 | 5.0 | 0.00 | 0.00 | 0.00 | 94 | 1001.4 |
| 20260505165037 | 74 | 172 | 4.0 | 7.0 | 0.00 | 0.00 | 0.00 | 95 | 1001.4 |
| 20260505164037 | 73 | 180 | 0.0 | 0.0 | 0.00 | 0.00 | 0.00 | 97 | 1001.4 |
| 20260505163136 | 72 | 180 | 1.0 | 5.0 | 0.00 | 0.00 | 0.00 | 97 | 1001.4 |
| 20260505162137 | 71 | 172 | 3.0 | 6.0 | 0.00 | 0.00 | 0.00 | 97 | 1001.7 |
| 20260505161236 | 71 | 104 | 0.0 | 5.0 | 0.00 | 0.00 | 0.00 | 97 | 1002.1 |
| 20260505160238 | 71 | 165 | 3.0 | 5.0 | 0.00 | 0.00 | 0.00 | 97 | 1002.1 |
| 20260505153337 | 70 | 268 | 0.0 | 0.0 | 0.00 | 0.00 | 0.00 | 96 | 1002.1 |
| 20260505152338 | 70 | 176 | 2.0 | 5.0 | 0.00 | 0.00 | 0.00 | 96 | 1001.9 |
| 20260505150337 | 70 | 135 | 0.0 | 2.0 | 0.00 | 0.00 | 0.00 | 94 | 1001.7 |
| 20260505140537 | 69 | 167 | 2.0 | 5.0 | 0.00 | 0.00 | 0.00 | 92 | 1001.4 |
| 20260505123739 | 68 | 170 | 3.0 | 5.0 | 0.00 | 0.00 | 0.00 | 89 | 1000.7 |
| 20260505121738 | 68 | 174 | 3.0 | 6.0 | 0.00 | 0.00 | 0.00 | 90 | 1000.7 |
| 20260505120837 | 68 | 164 | 3.0 | 6.0 | 0.00 | 0.00 | 0.00 | 91 | 1000.7 |
| 20260505115838 | 68 | 157 | 1.0 | 3.0 | 0.00 | 0.00 | 0.00 | 92 | 1000.0 |
| 20260505114837 | 68 | 169 | 1.0 | 4.0 | 0.00 | 0.00 | 0.00 | 93 | 1000.0 |
| 20260505113838 | 68 | 144 | 2.0 | 5.0 | 0.00 | 0.00 | 0.00 | 94 | 1000.0 |
| 20260505111937 | 67 | 180 | 0.0 | 0.0 | 0.00 | 0.00 | 0.00 | 94 | 1000.0 |
| 20260505110938 | 67 | 161 | 2.0 | 8.0 | 0.00 | 0.00 | 0.00 | 94 | 1000.4 |
| 20260505102036 | 68 | 178 | 3.0 | 6.0 | 0.00 | 0.00 | 0.00 | 95 | 1000.7 |
| 20260505101039 | 68 | 180 | 2.0 | 6.0 | 0.00 | 0.00 | 0.00 | 95 | 1000.7 |
| 20260505094036 | 68 | 159 | 2.0 | 4.0 | 0.00 | 0.00 | 0.00 | 96 | 1000.7 |
| 20260505093038 | 68 | 180 | 0.0 | 1.0 | 0.00 | 0.00 | 0.00 | 96 | 1001.1 |
| 20260505092039 | 68 | 157 | 1.0 | 5.0 | 0.00 | 0.00 | 0.00 | 96 | 1000.7 |
| 20260505091037 | 68 | 146 | 3.0 | 6.0 | 0.00 | 0.00 | 0.00 | 96 | 1001.1 |
| 20260505090038 | 68 | 162 | 2.0 | 5.0 | 0.00 | 0.00 | 0.00 | 96 | 1000.7 |
| 20260505085037 | 68 | 166 | 3.0 | 9.0 | 0.00 | 0.00 | 0.00 | 96 | 1000.7 |
| 20260505083038 | 68 | 171 | 3.0 | 7.0 | 0.00 | 0.00 | 0.00 | 96 | 1001.4 |
| 20260505082037 | 68 | 136 | 1.0 | 5.0 | 0.00 | 0.00 | 0.00 | 96 | 1001.1 |
| 20260505081037 | 68 | 163 | 1.0 | 3.0 | 0.00 | 0.00 | 0.00 | 96 | 1001.4 |
| 20260505080038 | 68 | 140 | 2.0 | 6.0 | 0.00 | 0.00 | 0.00 | 96 | 1001.4 |
| 20260505075037 | 68 | 170 | 4.0 | 6.0 | 0.00 | 0.00 | 0.00 | 96 | 1001.4 |
| 20260505074036 | 68 | 183 | 3.0 | 6.0 | 0.00 | 0.00 | 0.00 | 96 | 1001.4 |
| 20260505073037 | 68 | 113 | 1.0 | 4.0 | 0.00 | 0.00 | 0.00 | 96 | 1001.7 |
| 20260505072037 | 68 | 161 | 0.0 | 3.0 | 0.00 | 0.00 | 0.00 | 96 | 1001.7 |
| 20260505071037 | 68 | 165 | 4.0 | 7.0 | 0.00 | 0.00 | 0.00 | 96 | 1001.7 |
| 20260505070038 | 68 | 148 | 1.0 | 4.0 | 0.00 | 0.00 | 0.00 | 96 | 1002.1 |
| 20260505065035 | 69 | 189 | 2.0 | 5.0 | 0.00 | 0.00 | 0.00 | 96 | 1002.1 |
| 20260505064037 | 69 | 162 | 3.0 | 7.0 | 0.00 | 0.00 | 0.00 | 96 | 1002.1 |
| 20260505063038 | 69 | 170 | 3.0 | 6.0 | 0.00 | 0.00 | 0.00 | 96 | 1002.4 |
| 20260505062038 | 69 | 168 | 1.0 | 3.0 | 0.00 | 0.00 | 0.00 | 96 | 1002.4 |
| 20260505060136 | 69 | 163 | 3.0 | 8.0 | 0.00 | 0.00 | 0.00 | 96 | 1002.4 |
| 20260505055137 | 69 | 175 | 2.0 | 5.0 | 0.00 | 0.00 | 0.00 | 96 | 1002.4 |
| 20260505054137 | 69 | 151 | 2.0 | 5.0 | 0.00 | 0.00 | 0.00 | 96 | 1002.4 |
| 20260505053138 | 68 | 166 | 0.0 | 2.0 | 0.00 | 0.00 | 0.00 | 95 | 1002.4 |
| 20260505052137 | 69 | 180 | 4.0 | 13.0 | 0.00 | 0.00 | 0.00 | 96 | 1002.4 |
| 20260505051137 | 69 | 145 | 2.0 | 6.0 | 0.00 | 0.00 | 0.00 | 96 | 1002.4 |
| 20260505050138 | 69 | 360 | 2.0 | 4.0 | 0.00 | 0.00 | 0.00 | 96 | 1002.8 |
| 20260505041322 | 70 | 177 | 2.0 | 7.0 | 0.00 | 0.00 | 0.00 | 95 | 1002.3 |
| 20260505040323 | 70 | 169 | 4.0 | 9.0 | 0.00 | 0.00 | 0.00 | 94 | 1002.4 |
| 20260505035320 | 71 | 171 | 1.0 | 5.0 | 0.00 | 0.00 | 0.00 | 94 | 1002.3 |
| 20260505034322 | 71 | 166 | 3.0 | 7.0 | 0.00 | 0.00 | 0.00 | 93 | 1002.1 |
| 20260505033321 | 71 | 157 | 0.0 | 1.0 | 0.00 | 0.00 | 0.00 | 92 | 1002.1 |
| 20260505032321 | 71 | 158 | 3.0 | 6.0 | 0.00 | 0.00 | 0.00 | 91 | 1002.1 |
| 20260505031321 | 71 | 178 | 4.0 | 7.0 | 0.00 | 0.00 | 0.00 | 91 | 1002.1 |
| 20260505030323 | 72 | 180 | 0.0 | 1.0 | 0.00 | 0.00 | 0.00 | 89 | 1002.1 |
| 20260505025321 | 72 | 180 | 3.0 | 6.0 | 0.00 | 0.00 | 0.00 | 89 | 1002.1 |
| 20260505024322 | 72 | 151 | 0.0 | 4.0 | 0.00 | 0.00 | 0.00 | 87 | 1001.9 |
| 20260505022323 | 73 | 166 | 2.0 | 5.0 | 0.00 | 0.00 | 0.00 | 86 | 1002.1 |
| 20260505021322 | 73 | 151 | 0.0 | 0.0 | 0.00 | 0.00 | 0.00 | 85 | 1001.9 |
| 20260505020322 | 73 | 160 | 1.0 | 6.0 | 0.00 | 0.00 | 0.00 | 84 | 1001.6 |
| 20260505015321 | 73 | 146 | 0.0 | 3.0 | 0.00 | 0.00 | 0.00 | 82 | 1001.4 |
| 20260505014322 | 74 | 181 | 2.0 | 6.0 | 0.00 | 0.00 | 0.00 | 80 | 1001.4 |
| 20260505013323 | 74 | 166 | 0.0 | 2.0 | 0.00 | 0.00 | 0.00 | 78 | 1001.4 |
| 20260505012322 | 75 | 176 | 1.0 | 5.0 | 0.00 | 0.00 | 0.00 | 76 | 1001.4 |
| 20260505011322 | 75 | 150 | 1.0 | 4.0 | 0.00 | 0.00 | 0.00 | 74 | 1001.4 |
| 20260505010324 | 76 | 170 | 1.0 | 5.0 | 0.00 | 0.00 | 0.00 | 73 | 1001.4 |